Regional Weather Roundup
Issued by NWS

Home | Current Version | Previous Version | Graphics & Text | Print | Product List | Glossary On
Versions: 1 2 3 4 5 6 7 8 9 10 11 12 13 14 15 16 17 18 19 20 21 22 23 24 25 26 27 28 29 30 31 32 33 34 35 36 37 38 39 40 41 42 43 44 45 46 47 48 49 50
988
ASUS43 KLMK 200310
RWRKY
KENTUCKY REGIONAL WEATHER ROUNDUP
NATIONAL WEATHER SERVICE LOUISVILLE KY
1000 PM EST THU JAN 19 2017

NOTE "FAIR" INDICATES FEW OR NO CLOUDS BELOW 12,000 FEET
WITH NO SIGNIFICANT WEATHER AND/OR OBSTRUCTIONS TO VISIBILITY.

KYZ001>023-026-027-061>063-070>075-200400-
WESTERN AND SOUTH CENTRAL KENTUCKY

CITY           SKY/WX    TMP DP  RH WIND       PRES   REMARKS
PADUCAH        CLOUDY    59  56  89 SW5       29.65F
HENDERSON      CLOUDY    54  50  87 SE5       29.68F
OWENSBORO      LGT RAIN  55  54  96 SE8       29.70F
HOPKINSVILLE   DRIZZLE   55  55 100 CALM      29.69F FOG
BOWLING GREEN  HVY RAIN  58  57  97 NW6       29.69F FOG
GLASGOW        LGT RAIN N/A N/A N/A SE8       29.70F
$$

KYZ024-025-028>034-038-045-046-053-200400-
NORTH CENTRAL KENTUCKY

CITY           SKY/WX    TMP DP  RH WIND       PRES   REMARKS
LOUISVILLE/SDF LGT RAIN  52  49  89 E3        29.73F FOG
LOUISVILLE/LOU LGT RAIN  52  50  93 E3        29.74F FOG
FORT KNOX      LGT RAIN  52  52 100 E6        29.70F
$$

KYZ035>037-039>044-047>052-055>060-089>105-200400-
NORTHEAST KENTUCKY

CITY           SKY/WX    TMP DP  RH WIND       PRES   REMARKS
LEXINGTON      LGT RAIN  50  47  89 SE12      29.78F
COVINGTON      LGT RAIN  47  42  83 E8        29.78F
FRANKFORT      LGT RAIN  50  47  89 E6        29.75F FOG
$$

KYZ054-064>069-076>088-106>120-200400-
SOUTHEAST KENTUCKY

CITY           SKY/WX    TMP DP  RH WIND       PRES   REMARKS
JACKSON        LGT RAIN  50  41  71 CALM      29.83F
LONDON         LGT RAIN  51  48  89 SE3       29.81F
SOMERSET       RAIN      50  50 100 S8        29.81F
MIDDLESBORO    CLOUDY    50  49  93 CALM      29.85F
MONTICELLO     LGT RAIN  54  52  93 VRB7      29.81F
$$





USA.gov is the U.S. government's official web portal to all federal, state and local government web resources and services.